Radiation Dose at Monitoring Post of Fukushima Daini Nuclear Power Station
Date,Time,MP-1(microSv/h),MP-2(microSv/h),MP-3(microSv/h),MP-4(microSv/h),MP-5(microSv/h),MP-6(microSv/h),MP-7(microSv/h),Wind Direction,Wind Velocity(m/s),Rain
2016/03/19,00:00,0.461,0.264,0.477,0.428,0.400,0.216,0.189,south-southwest,7.0,No
2016/03/19,00:10,0.463,0.265,0.480,0.427,0.395,0.217,0.190,south-southwest,8.3,No
2016/03/19,00:20,0.461,0.265,0.475,0.429,0.398,0.215,0.189,south-southwest,9.2,No
2016/03/19,00:30,0.464,0.264,0.480,0.425,0.396,0.217,0.188,south-southwest,9.1,No
2016/03/19,00:40,0.462,0.265,0.476,0.428,0.398,0.216,0.190,south-southwest,9.4,No
2016/03/19,00:50,0.463,0.263,0.480,0.425,0.397,0.216,0.189,south-southwest,9.3,No
2016/03/19,01:00,0.463,0.265,0.477,0.427,0.397,0.216,0.189,south-southwest,8.0,No
2016/03/19,01:10,0.464,0.265,0.479,0.425,0.397,0.216,0.189,south-southwest,7.9,No
2016/03/19,01:20,0.465,0.264,0.478,0.426,0.397,0.216,0.189,south-southwest,7.4,No
2016/03/19,01:30,0.462,0.265,0.478,0.428,0.399,0.216,0.190,south-southwest,7.8,No
2016/03/19,01:40,0.463,0.264,0.480,0.425,0.396,0.217,0.189,south-southwest,8.6,No
2016/03/19,01:50,0.461,0.266,0.477,0.428,0.399,0.216,0.189,south-southwest,8.1,No
2016/03/19,02:00,0.464,0.264,0.481,0.425,0.395,0.216,0.189,south-southwest,8.1,No
2016/03/19,02:10,0.463,0.265,0.477,0.429,0.400,0.216,0.189,south-southwest,7.2,Yes
2016/03/19,02:20,0.461,0.265,0.480,0.425,0.395,0.217,0.188,south-southwest,7.3,Yes
2016/03/19,02:30,0.462,0.264,0.477,0.427,0.399,0.217,0.189,south-southwest,8.3,Yes
2016/03/19,02:40,0.461,0.266,0.481,0.426,0.397,0.217,0.190,south-southwest,10.1,Yes
2016/03/19,02:50,0.465,0.264,0.477,0.428,0.397,0.216,0.191,south-southwest,10.2,Yes
2016/03/19,03:00,0.461,0.265,0.479,0.428,0.400,0.217,0.190,south-southwest,10.8,Yes
2016/03/19,03:10,0.465,0.264,0.478,0.427,0.397,0.218,0.189,southwest,8.9,Yes
2016/03/19,03:20,0.464,0.265,0.478,0.429,0.400,0.217,0.190,southwest,8.4,Yes
2016/03/19,03:30,0.463,0.265,0.480,0.426,0.397,0.218,0.191,southwest,10.0,No
2016/03/19,03:40,0.463,0.264,0.476,0.429,0.399,0.218,0.190,southwest,8.6,No
2016/03/19,03:50,0.462,0.266,0.481,0.426,0.398,0.216,0.189,south-southwest,8.3,Yes
2016/03/19,04:00,0.463,0.264,0.476,0.427,0.395,0.216,0.189,south-southwest,8.0,Yes
2016/03/19,04:10,0.462,0.265,0.480,0.427,0.397,0.217,0.190,south-southwest,9.8,Yes
2016/03/19,04:20,0.464,0.264,0.475,0.426,0.395,0.217,0.189,south-southwest,11.2,Yes
2016/03/19,04:30,0.461,0.266,0.482,0.429,0.399,0.217,0.191,south-southwest,10.6,Yes
2016/03/19,04:40,0.465,0.265,0.478,0.427,0.396,0.219,0.190,south-southwest,11.2,Yes
2016/03/19,04:50,0.463,0.264,0.479,0.430,0.399,0.217,0.191,south-southwest,11.4,Yes
2016/03/19,05:00,0.463,0.268,0.479,0.427,0.398,0.218,0.190,south-southwest,10.7,Yes
2016/03/19,05:10,0.463,0.265,0.479,0.429,0.397,0.217,0.191,south-southwest,11.4,Yes
2016/03/19,05:20,0.464,0.266,0.479,0.427,0.398,0.218,0.190,south-southwest,12.1,Yes
2016/03/19,05:30,0.464,0.265,0.479,0.427,0.397,0.217,0.190,south-southwest,11.8,Yes
2016/03/19,05:40,0.463,0.265,0.480,0.429,0.398,0.217,0.190,south-southwest,11.7,Yes
2016/03/19,05:50,0.465,0.265,0.477,0.427,0.397,0.217,0.190,south-southwest,11.5,Yes
2016/03/19,06:00,0.463,0.266,0.481,0.429,0.399,0.216,0.190,south-southwest,11.5,Yes
2016/03/19,06:10,0.465,0.267,0.476,0.426,0.398,0.217,0.190,south-southwest,12.0,Yes
2016/03/19,06:20,0.462,0.264,0.479,0.429,0.396,0.218,0.190,south-southwest,11.2,Yes
2016/03/19,06:30,0.462,0.266,0.477,0.427,0.398,0.217,0.190,south-southwest,10.0,Yes
2016/03/19,06:40,0.462,0.264,0.482,0.426,0.397,0.218,0.190,south-southwest,9.5,Yes
2016/03/19,06:50,0.463,0.267,0.479,0.430,0.398,0.217,0.189,south-southwest,8.6,Yes
2016/03/19,07:00,0.463,0.265,0.480,0.426,0.397,0.217,0.190,south-southwest,8.1,Yes
2016/03/19,07:10,0.460,0.264,0.480,0.430,0.398,0.218,0.189,south,8.5,Yes
2016/03/19,07:20,0.464,0.266,0.478,0.427,0.397,0.218,0.191,south-southwest,9.8,Yes
2016/03/19,07:30,0.464,0.265,0.482,0.429,0.396,0.218,0.190,south-southwest,9.4,Yes
2016/03/19,07:40,0.466,0.266,0.477,0.429,0.398,0.218,0.191,south-southwest,10.1,Yes
2016/03/19,07:50,0.463,0.267,0.484,0.426,0.397,0.219,0.190,south-southwest,10.0,Yes
2016/03/19,08:00,0.464,0.265,0.478,0.428,0.396,0.217,0.191,south-southwest,8.9,Yes
2016/03/19,08:10,0.464,0.265,0.481,0.426,0.398,0.217,0.190,south-southwest,9.0,Yes
2016/03/19,08:20,0.461,0.265,0.476,0.428,0.396,0.219,0.190,south,9.4,Yes
2016/03/19,08:30,0.465,0.266,0.479,0.427,0.400,0.217,0.190,south,9.5,Yes
2016/03/19,08:40,0.462,0.266,0.480,0.428,0.396,0.218,0.190,south-southwest,11.2,Yes
2016/03/19,08:50,0.464,0.265,0.479,0.429,0.398,0.218,0.190,south,10.4,Yes
2016/03/19,09:00,0.463,0.266,0.482,0.427,0.396,0.218,0.191,south,10.4,Yes
2016/03/19,09:10,0.463,0.265,0.477,0.427,0.395,0.218,0.190,south,11.6,Yes
2016/03/19,09:20,0.462,0.266,0.482,0.427,0.398,0.217,0.191,south-southwest,10.9,Yes
2016/03/19,09:30,0.463,0.265,0.478,0.425,0.396,0.217,0.191,south-southwest,10.1,Yes
2016/03/19,09:40,0.463,0.266,0.481,0.428,0.396,0.218,0.190,south,9.9,Yes
2016/03/19,09:50,0.462,0.265,0.478,0.426,0.396,0.218,0.190,south,10.0,Yes
2016/03/19,10:00,0.465,0.266,0.477,0.429,0.396,0.217,0.190,south-southwest,10.2,No
2016/03/19,10:10,0.459,0.265,0.478,0.424,0.398,0.217,0.189,south,10.1,No
2016/03/19,10:20,0.465,0.264,0.476,0.428,0.394,0.216,0.189,south,10.3,No
2016/03/19,10:30,0.460,0.266,0.478,0.427,0.398,0.217,0.190,south,9.3,No
2016/03/19,10:40,0.463,0.264,0.475,0.426,0.395,0.217,0.189,south-southwest,9.0,No
2016/03/19,10:50,0.460,0.265,0.482,0.428,0.397,0.216,0.189,south,8.3,No
2016/03/19,11:00,0.462,0.263,0.475,0.425,0.395,0.217,0.189,south-southwest,8.6,No
2016/03/19,11:10,0.459,0.264,0.478,0.427,0.396,0.216,0.188,south,9.0,No
2016/03/19,11:20,0.461,0.264,0.474,0.423,0.397,0.216,0.189,south-southwest,9.2,No
2016/03/19,11:30,0.461,0.264,0.480,0.428,0.396,0.217,0.188,south-southwest,9.3,No
2016/03/19,11:40,0.462,0.265,0.475,0.426,0.397,0.216,0.189,south-southwest,8.8,No
2016/03/19,11:50,0.463,0.263,0.478,0.426,0.396,0.217,0.189,south-southwest,8.7,No
2016/03/19,12:00,0.459,0.266,0.473,0.425,0.398,0.217,0.188,south-southwest,10.5,No
2016/03/19,12:10,0.465,0.263,0.480,0.425,0.394,0.216,0.189,south-southwest,9.2,No
2016/03/19,12:20,0.459,0.264,0.475,0.425,0.398,0.215,0.188,south-southwest,9.6,No
2016/03/19,12:30,0.462,0.263,0.480,0.424,0.393,0.217,0.188,south-southwest,9.8,No
2016/03/19,12:40,0.459,0.265,0.477,0.426,0.397,0.215,0.188,south-southwest,8.6,No
2016/03/19,12:50,0.464,0.264,0.478,0.423,0.394,0.217,0.188,south-southwest,8.8,No
2016/03/19,13:00,0.458,0.265,0.476,0.427,0.397,0.215,0.189,south-southwest,8.4,No
2016/03/19,13:10,0.463,0.263,0.478,0.424,0.396,0.215,0.187,south-southwest,8.8,No
2016/03/19,13:20,0.459,0.264,0.477,0.426,0.399,0.216,0.188,south-southwest,8.6,No
2016/03/19,13:30,0.464,0.264,0.479,0.425,0.394,0.217,0.189,south-southwest,8.6,No
2016/03/19,13:40,0.461,0.263,0.476,0.426,0.398,0.215,0.188,south-southwest,7.1,No
2016/03/19,13:50,0.464,0.263,0.478,0.424,0.394,0.216,0.188,south-southwest,5.8,No
2016/03/19,14:00,0.459,0.265,0.477,0.428,0.395,0.216,0.189,south-southwest,4.9,No
2016/03/19,14:10,0.463,0.264,0.477,0.423,0.393,0.216,0.188,south-southwest,2.7,No
2016/03/19,14:20,0.458,0.266,0.475,0.427,0.396,0.215,0.188,south-southwest,3.9,No
2016/03/19,14:30,0.462,0.263,0.477,0.423,0.393,0.216,0.188,south-southwest,3.4,No
2016/03/19,14:40,0.458,0.264,0.475,0.427,0.397,0.216,0.189,south,4.2,No
2016/03/19,14:50,0.463,0.263,0.478,0.424,0.394,0.216,0.188,south,4.5,No
2016/03/19,15:00,0.459,0.264,0.475,0.427,0.398,0.215,0.188,south-southwest,5.4,No
2016/03/19,15:10,0.464,0.263,0.480,0.425,0.393,0.217,0.188,south-southwest,4.1,No
2016/03/19,15:20,0.460,0.265,0.472,0.428,0.399,0.216,0.189,south,4.0,No
2016/03/19,15:30,0.464,0.264,0.481,0.424,0.393,0.217,0.187,south,4.4,No
2016/03/19,15:40,0.461,0.265,0.475,0.427,0.395,0.215,0.187,south,4.3,No
2016/03/19,15:50,0.458,0.263,0.479,0.424,0.396,0.215,0.188,south-southwest,2.1,No
2016/03/19,16:00,0.462,0.265,0.475,0.427,0.393,0.217,0.189,west,1.9,No
2016/03/19,16:10,0.460,0.264,0.477,0.423,0.399,0.215,0.189,west-southwest,4.1,No
2016/03/19,16:20,0.463,0.266,0.479,0.428,0.393,0.216,0.189,west-northwest,6.4,No
2016/03/19,16:30,0.458,0.263,0.474,0.424,0.392,0.213,0.189,northwest,7.3,No
2016/03/19,16:40,0.463,0.266,0.480,0.427,0.399,0.215,0.189,west-northwest,6.1,No
2016/03/19,16:50,0.460,0.264,0.474,0.425,0.394,0.216,0.189,north-northwest,4.5,No
2016/03/19,17:00,0.462,0.265,0.480,0.425,0.400,0.216,0.188,north-northwest,6.4,No
2016/03/19,17:10,0.462,0.264,0.475,0.427,0.396,0.217,0.188,north-northwest,5.1,No
2016/03/19,17:20,0.462,0.266,0.480,0.425,0.397,0.216,0.190,north,5.6,No
2016/03/19,17:30,0.464,0.264,0.476,0.427,0.396,0.218,0.188,north,6.4,No
2016/03/19,17:40,0.461,0.266,0.479,0.424,0.397,0.216,0.189,north-northwest,6.3,No
2016/03/19,17:50,0.466,0.265,0.477,0.427,0.396,0.217,0.189,northwest,5.0,No
2016/03/19,18:00,0.460,0.265,0.478,0.427,0.399,0.217,0.189,northwest,6.6,No
2016/03/19,18:10,0.465,0.264,0.477,0.426,0.397,0.217,0.189,northwest,8.0,No
2016/03/19,18:20,0.462,0.266,0.478,0.429,0.399,0.217,0.189,northwest,7.2,No
2016/03/19,18:30,0.465,0.264,0.478,0.426,0.396,0.216,0.189,northwest,7.5,No
2016/03/19,18:40,0.461,0.267,0.478,0.428,0.399,0.217,0.190,northwest,6.0,No
2016/03/19,18:50,0.465,0.265,0.479,0.427,0.396,0.215,0.190,west-northwest,7.0,No
2016/03/19,19:00,0.462,0.266,0.481,0.429,0.400,0.217,0.190,northwest,5.4,No
2016/03/19,19:10,0.464,0.264,0.479,0.426,0.394,0.216,0.189,north-northwest,6.2,No
2016/03/19,19:20,0.464,0.264,0.478,0.429,0.400,0.218,0.190,north-northwest,6.5,No
2016/03/19,19:30,0.463,0.266,0.477,0.425,0.395,0.217,0.190,north,6.6,No
2016/03/19,19:40,0.463,0.265,0.480,0.427,0.399,0.215,0.189,north,6.5,No
2016/03/19,19:50,0.463,0.266,0.477,0.426,0.397,0.217,0.188,north,6.6,No
2016/03/19,20:00,0.465,0.263,0.480,0.428,0.397,0.216,0.189,north,6.5,No
2016/03/19,20:10,0.462,0.266,0.477,0.426,0.397,0.217,0.189,north-northwest,5.6,No
2016/03/19,20:20,0.464,0.264,0.481,0.426,0.396,0.217,0.189,north-northwest,5.8,No
2016/03/19,20:30,0.462,0.265,0.477,0.428,0.399,0.216,0.190,north-northwest,7.3,No
2016/03/19,20:40,0.465,0.267,0.480,0.424,0.397,0.215,0.189,north-northwest,6.6,No
2016/03/19,20:50,0.461,0.264,0.479,0.429,0.399,0.215,0.189,north,6.6,No
2016/03/19,21:00,0.465,0.265,0.478,0.426,0.397,0.217,0.190,north-northwest,7.8,No
2016/03/19,21:10,0.463,0.264,0.480,0.426,0.397,0.215,0.190,north-northwest,7.6,No
2016/03/19,21:20,0.464,0.265,0.479,0.427,0.398,0.217,0.190,north-northwest,7.3,No
2016/03/19,21:30,0.463,0.266,0.482,0.426,0.397,0.217,0.190,north-northwest,7.2,No
2016/03/19,21:40,0.460,0.264,0.479,0.428,0.398,0.216,0.189,north,5.9,No
2016/03/19,21:50,0.465,0.265,0.481,0.424,0.396,0.217,0.189,north,5.3,No
2016/03/19,22:00,0.462,0.264,0.477,0.426,0.397,0.218,0.188,north,5.6,No
2016/03/19,22:10,0.465,0.266,0.480,0.427,0.396,0.217,0.189,north-northwest,5.2,No
2016/03/19,22:20,0.462,0.264,0.478,0.427,0.394,0.217,0.189,north,5.6,No
2016/03/19,22:30,0.463,0.265,0.479,0.427,0.397,0.217,0.190,north-northwest,4.9,No
2016/03/19,22:40,0.463,0.265,0.480,0.426,0.395,0.217,0.188,north-northwest,5.3,No
2016/03/19,22:50,0.461,0.265,0.478,0.429,0.397,0.217,0.190,north-northwest,5.4,No
2016/03/19,23:00,0.466,0.265,0.480,0.428,0.398,0.216,0.190,north-northwest,5.6,No
2016/03/19,23:10,0.463,0.265,0.478,0.427,0.395,0.216,0.190,north-northwest,6.7,No
2016/03/19,23:20,0.464,0.264,0.479,0.428,0.397,0.216,0.189,north-northwest,7.9,No
2016/03/19,23:30,0.463,0.266,0.479,0.427,0.396,0.218,0.190,north-northwest,8.0,No
2016/03/19,23:40,0.462,0.266,0.479,0.428,0.396,0.217,0.190,north-northwest,7.1,No
2016/03/19,23:50,0.465,0.265,0.480,0.428,0.397,0.216,0.189,north,5.4,No
